Terminal Aerodrome Forecast
Issued by NWS Atlanta, GA

Home | Current Version | Previous Version | Text Only | Print | Product List | Glossary On
Versions: 1 2 3 4 5 6 7 8 9 10 11 12 13 14 15 16 17 18 19 20 21 22 23 24 25 26 27 28 29 30 31 32 33 34 35 36 37 38 39 40 41 42
000
FTUS42 KFFC 270932 AAB
TAFATL
TAF AMD
KATL 270932Z 2710/2812 23005KT P6SM FEW060 SCT150
     FM271500 24009KT P6SM FEW040
     FM271800 25010G18KT P6SM SCT040
     FM272000 26010G18KT P6SM BKN040 BKN150
     FM280000 25007KT P6SM SCT040 SCT250
     FM281000 25006KT P6SM BKN012=

USA.gov is the U.S. government's official web portal to all federal, state and local government web resources and services.